FW1746 Weather Reports


Display with metric or nautical units.
time (UTC)temp
F
wind
direction
speed
MPH
gust
MPH
rain 1hr
in
rain 24hr
in
rain mn
in
humidity
%
barometer
mb
20260509084559 55 154 3.0 7.0 0.00 0.00 0.00 75 1023.5
20260509083051 54 163 2.0 5.0 0.00 0.00 0.00 77 1023.5
20260509081551 54 149 2.0 5.0 0.00 0.00 0.00 76 1023.5
20260509080043 54 167 2.0 4.0 0.00 0.00 0.00 76 1023.6
20260509074549 53 197 0.0 3.0 0.00 0.00 0.00 78 1023.6
20260509073042 52 217 1.0 3.0 0.00 0.00 0.00 79 1023.7
20260509071542 51 234 0.0 1.0 0.00 0.00 0.00 80 1023.7
20260509070057 50 250 0.0 0.0 0.00 0.00 0.00 82 1023.7
20260509064550 49 234 0.0 2.0 0.00 0.00 0.00 83 1023.6
20260509063048 48 234 0.0 1.0 0.00 0.00 0.00 85 1023.6
20260509061553 48 240 0.0 2.0 0.00 0.00 0.00 86 1023.6
20260509060054 47 263 0.0 0.0 0.00 0.00 0.00 86 1023.5
20260509054612 46 244 1.0 2.0 0.00 0.00 0.00 86 1023.5
20260509053142 46 244 0.0 0.0 0.00 0.00 0.00 87 1023.5
20260509051554 46 263 0.0 0.0 0.00 0.00 0.00 86 1023.4
20260509050050 45 244 0.0 2.0 0.00 0.00 0.00 86 1023.4
20260509044549 45 243 0.0 2.0 0.00 0.00 0.00 86 1023.3
20260509043049 45 277 1.0 3.0 0.00 0.00 0.00 87 1023.2
20260509041548 45 243 1.0 3.0 0.00 0.00 0.00 86 1023.1
20260509040112 45 244 0.0 0.0 0.00 0.00 0.00 86 1023.0
20260509034624 45 265 0.0 0.0 0.00 0.00 0.00 86 1023.1
20260509033055 45 262 0.0 3.0 0.00 0.00 0.00 86 1023.1
20260509031555 45 245 0.0 0.0 0.00 0.00 0.00 87 1023.1
20260509030040 45 262 0.0 4.0 0.00 0.00 0.00 87 1023.1
20260509024542 45 261 0.0 0.0 0.00 0.00 0.00 87 1023.2
20260509023045 45 244 0.0 1.0 0.00 0.00 0.00 88 1023.3
20260509021536 45 244 1.0 3.0 0.00 0.00 0.00 88 1023.3
20260509020048 45 246 0.0 1.0 0.00 0.00 0.00 88 1023.3
20260509014546 45 243 3.0 4.0 0.00 0.00 0.00 88 1023.4
20260509013057 45 245 0.0 1.0 0.00 0.00 0.00 88 1023.4
20260509011544 45 240 1.0 4.0 0.00 0.00 0.00 88 1023.4
20260509010037 45 247 0.0 4.0 0.00 0.00 0.00 88 1023.4
20260509004540 45 243 0.0 1.0 0.00 0.00 0.00 88 1023.4
20260509003054 45 242 3.0 6.0 0.00 0.00 0.00 88 1023.5
20260509001533 45 268 0.0 4.0 0.00 0.00 0.00 87 1023.6
20260509000029 46 247 1.0 3.0 0.00 0.00 0.00 87 1023.7
20260508234532 46 251 0.0 4.0 0.00 0.00 0.00 87 1023.7
20260508233027 46 252 0.0 3.0 0.00 0.00 0.00 87 1023.7
20260508231525 46 290 0.0 3.0 0.00 0.00 0.00 87 1023.7
20260508230034 46 5 2.0 3.0 0.00 0.00 0.00 88 1023.7
20260508224532 47 9 2.0 3.0 0.00 0.00 0.00 87 1023.6
20260508223028 47 9 1.0 2.0 0.00 0.00 0.00 87 1023.7
20260508221526 48 9 0.0 2.0 0.00 0.00 0.00 87 1023.8
20260508220017 48 9 1.0 2.0 0.00 0.00 0.00 86 1023.9
20260508214511 49 9 0.0 2.0 0.00 0.00 0.00 86 1023.9
20260508213009 49 9 0.0 2.0 0.00 0.00 0.00 86 1023.8
20260508211507 49 9 2.0 3.0 0.00 0.00 0.00 85 1023.8
20260508210017 50 9 2.0 3.0 0.00 0.00 0.00 85 1023.7
20260508204513 50 9 1.0 3.0 0.00 0.00 0.00 85 1023.8
20260508203011 50 9 1.0 4.0 0.00 0.00 0.00 85 1023.7
20260508201510 50 5 2.0 4.0 0.00 0.00 0.00 86 1023.8
20260508200011 50 26 1.0 2.0 0.00 0.00 0.00 85 1023.6
20260508194510 51 26 1.0 2.0 0.00 0.00 0.00 85 1023.6
20260508193009 51 26 0.0 2.0 0.00 0.00 0.00 84 1023.6
20260508191505 52 26 1.0 3.0 0.00 0.00 0.00 83 1023.5
20260508190004 52 26 1.0 3.0 0.00 0.00 0.00 82 1023.4
20260508184502 53 38 1.0 4.0 0.00 0.00 0.00 81 1023.3
20260508183108 53 41 2.0 4.0 0.00 0.00 0.00 80 1023.3
20260508181600 53 51 2.0 4.0 0.00 0.00 0.00 80 1023.3
20260508180053 53 42 2.0 4.0 0.00 0.00 0.00 80 1023.3
20260508174603 53 70 1.0 3.0 0.00 0.00 0.00 79 1023.3
20260508173050 53 66 3.0 5.0 0.00 0.00 0.00 79 1023.3
20260508171551 53 69 5.0 8.0 0.00 0.00 0.00 79 1023.2
20260508170047 54 63 5.0 8.0 0.00 0.00 0.00 78 1023.1
20260508164548 54 57 4.0 6.0 0.00 0.00 0.00 76 1023.1
20260508163108 54 63 4.0 7.0 0.00 0.00 0.00 75 1023.0
20260508161540 54 63 3.0 5.0 0.00 0.00 0.00 73 1023.1
20260508160035 54 65 4.0 6.0 0.00 0.00 0.00 71 1023.1
20260508154532 56 62 5.0 8.0 0.00 0.00 0.00 69 1023.2
20260508153032 56 58 6.0 9.0 0.00 0.00 0.00 69 1023.1
20260508151535 56 71 3.0 6.0 0.00 0.00 0.00 69 1023.2
20260508150044 56 67 2.0 7.0 0.00 0.00 0.00 66 1023.2
20260508144543 56 71 3.0 7.0 0.00 0.00 0.00 65 1023.2
20260508143041 58 93 4.0 7.0 0.00 0.00 0.00 58 1023.3
20260508141540 59 59 3.0 6.0 0.00 0.00 0.00 58 1023.3
20260508140030 60 81 3.0 6.0 0.00 0.00 0.00 55 1023.4
20260508134528 60 107 4.0 6.0 0.00 0.00 0.00 58 1023.4
20260508133022 59 65 4.0 10.0 0.00 0.00 0.00 59 1023.5
20260508131519 59 51 3.0 6.0 0.00 0.00 0.00 59 1023.5
20260508130020 57 69 2.0 4.0 0.00 0.00 0.00 57 1023.4
20260508124516 54 66 2.0 4.0 0.00 0.00 0.00 64 1023.5
20260508123014 54 67 4.0 6.0 0.00 0.00 0.00 68 1023.6
20260508121513 55 61 4.0 6.0 0.00 0.00 0.00 70 1023.7
20260508120014 55 93 3.0 5.0 0.00 0.00 0.00 70 1023.6
20260508114510 55 87 3.0 6.0 0.00 0.00 0.00 70 1023.7
20260508113010 55 92 5.0 9.0 0.00 0.00 0.00 70 1023.6
20260508111507 56 69 3.0 6.0 0.00 0.00 0.00 70 1023.6
20260508110003 55 78 3.0 6.0 0.00 0.00 0.00 72 1023.6
20260508104605 54 58 4.0 7.0 0.00 0.00 0.00 72 1023.6
20260508103100 54 62 6.0 9.0 0.00 0.00 0.00 75 1023.5
20260508101601 54 65 6.0 9.0 0.00 0.00 0.00 74 1023.5
20260508100059 55 73 3.0 8.0 0.00 0.00 0.00 73 1023.4
20260508094600 55 74 5.0 9.0 0.00 0.00 0.00 73 1023.3
20260508093103 54 64 3.0 8.0 0.00 0.00 0.00 74 1023.3
20260508091557 54 87 2.0 7.0 0.00 0.00 0.00 73 1023.2
20260508090111 54 130 0.0 3.0 0.00 0.00 0.00 73 1023.2